Wind_Speed
12 12 8 8 3 3 5 7 12 13 6 16 26 21 16 16 6 6 7 6 5 5 15 18 16 15 15 13 12 10 9 9 10 11 12 13 14 14 14 14 14 14 12 11 10 9 9 9 9
10 12 4 3 1 2 6 6 15 6 11 16 27 26 16 9 15 11 4 3 3 2 13 16 17 15 14 14 12 11 10 9 9 10 11 12 14 14 13 13 12 11 11 9 9 8 7 8 10
8 10 5 2 3 4 6 7 6 9 15 13 5 17 7 7 13 5 8 1 5 4 11 15 16 15 14 13 13 11 10 9 9 8 10 11 13 14 13 12 11 10 10 9 8 6 6 7 9
9 3 5 2 10 13 9 12 2 5 14 15 16 9 11 8 6 5 8 3 7 6 6 16 16 15 14 14 13 12 11 10 9 8 8 10 11 13 12 11 10 9 9 7 6 5 5 7 9
5 4 2 3 11 13 15 13 10 4 5 17 20 8 14 11 12 6 6 11 9 6 6 18 17 15 14 14 14 13 12 11 11 10 9 10 11 13 13 11 10 8 8 7 6 6 5 7 9
6 3 3 5 10 9 9 2 10 6 19 15 14 16 13 13 11 8 4 10 11 4 4 10 16 16 16 15 15 14 13 12 12 11 11 11 12 13 13 12 10 9 8 8 7 6 6 7 9
3 1 4 6 11 14 7 3 8 6 17 12 7 5 10 9 9 7 2 7 10 11 7 4 11 16 17 17 16 15 14 14 13 13 12 12 13 14 14 14 13 11 9 9 8 7 7 8 10
7 2 5 5 9 10 14 10 10 9 12 7 10 4 4 7 3 2 3 5 12 16 12 9 8 9 19 20 18 17 16 15 15 15 14 14 14 15 15 16 15 13 12 10 9 8 8 9 11
14 1 4 7 8 9 17 10 17 9 9 7 7 9 5 2 3 3 5 3 2 22 18 15 13 10 14 20 20 19 18 18 17 17 16 17 17 17 18 17 17 16 14 13 11 11 10 11 12
6 4 7 7 5 5 9 13 13 9 13 12 13 11 8 12 3 4 5 9 7 6 20 15 14 13 18 20 20 21 21 21 20 19 19 19 19 20 20 19 20 19 18 16 15 14 13 13 13
10 7 9 15 13 8 7 7 15 12 5 13 12 14 13 10 8 5 7 15 13 16 7 11 7 11 12 18 20 21 23 21 21 21 21 21 22 22 23 23 24 23 22 21 19 18 16 14 14
7 16 8 19 24 5 5 13 8 14 16 18 19 17 17 17 16 12 10 13 17 13 6 3 5 11 7 13 15 14 16 16 19 24 24 24 25 25 24 24 25 25 24 22 22 20 18 16 15
6 2 12 21 15 7 11 11 10 17 19 19 19 17 12 13 14 15 15 16 23 16 8 6 9 11 14 16 17 22 21 22 20 22 28 26 26 27 26 24 24 23 19 22 25 23 20 19 18
14 13 11 19 23 19 9 11 11 21 24 23 19 12 15 15 17 14 15 16 18 19 10 6 13 14 13 21 18 15 17 21 19 18 19 20 27 28 29 27 26 23 20 15 21 23 20 18 15
13 7 9 18 17 12 19 4 7 22 19 20 17 9 8 12 15 15 16 17 20 16 10 13 13 17 16 16 19 24 26 20 24 28 25 23 21 23 32 29 28 27 23 20 17 14 17 15 14
4 4 2 10 11 10 9 7 12 16 14 14 16 21 18 19 18 17 16 14 15 14 20 19 12 12 16 15 21 20 24 25 30 26 34 30 25 24 25 32 32 30 27 24 20 20 21 19 21
3 3 4 7 2 3 4 7 10 15 19 23 24 20 21 23 24 23 24 24 24 23 20 19 18 16 17 18 18 23 23 23 21 35 29 34 35 30 28 30 32 29 31 26 26 22 25 28 23
6 6 8 8 9 11 9 10 9 17 14 19 19 22 28 28 23 21 21 23 22 17 20 20 21 20 22 24 28 27 27 25 26 31 35 32 34 42 37 33 34 33 31 37 30 31 29 31 29
6 6 8 9 10 7 9 8 9 18 24 21 24 27 27 21 10 8 8 8 16 15 14 12 10 12 15 20 23 28 33 33 33 34 36 36 35 46 46 36 38 37 37 37 38 35 37 34 31
6 9 9 7 8 10 10 17 16 17 21 28 29 25 4 8 10 7 9 10 10 6 4 2 2 5 9 13 18 22 25 34 38 36 34 41 39 38 42 41 39 37 39 37 41 36 38 39 36
5 5 7 8 10 9 10 12 10 18 26 26 13 15 15 16 9 6 9 9 4 4 5 6 8 8 5 8 13 18 23 28 32 35 41 34 44 45 43 41 37 39 43 32 38 38 40 41 37
5 10 11 10 8 4 4 7 18 10 14 11 8 18 17 21 23 22 20 14 8 6 9 13 14 16 18 14 15 14 20 27 31 32 35 33 41 39 34 26 36 35 35 45 42 44 39 42 41
6 8 8 12 12 6 15 3 9 8 8 15 13 20 24 18 15 15 14 14 12 9 7 4 5 7 11 15 17 19 20 24 30 34 32 34 35 27 29 35 31 38 39 39 41 41 45 42 41
7 8 10 9 5 2 6 1 5 5 2 4 21 35 15 13 13 12 9 7 10 8 8 9 11 11 11 14 19 23 21 23 25 29 36 34 28 28 31 28 32 37 45 44 39 43 36 47 41
9 7 5 5 4 5 14 8 2 9 12 9 8 17 23 24 20 17 15 15 15 12 11 10 15 17 19 22 22 24 29 28 29 28 30 32 30 27 33 30 28 30 36 44 41 32 32 37 40
4 1 3 4 4 11 8 5 3 9 16 12 9 10 17 22 17 17 17 19 19 18 18 19 20 21 22 19 20 21 25 28 31 30 28 27 27 28 27 26 25 24 34 38 38 40 35 39 42
2 2 2 2 5 5 4 5 3 6 8 8 5 8 11 15 16 12 14 16 21 24 26 27 26 23 20 20 21 25 27 29 31 31 27 26 25 22 24 23 23 29 36 35 37 38 37 35 39
6 5 1 2 3 5 4 8 10 3 8 7 3 8 14 13 11 13 17 21 23 27 26 26 28 28 25 21 17 18 25 29 30 28 30 26 24 24 24 26 29 28 28 29 33 31 32 33 37
6 6 4 3 5 5 4 5 4 11 5 0 4 3 13 15 11 16 21 25 28 30 29 30 30 29 30 30 27 23 22 23 27 26 31 30 22 22 26 24 23 28 26 24 26 28 30 28 32
13 10 1 4 6 3 3 16 10 9 8 19 3 7 10 12 15 14 18 24 23 24 24 29 34 37 35 34 37 33 29 22 25 32 28 32 29 22 20 25 24 22 22 23 22 24 23 24 28
Wind_Direction
331 341 344 335 27 81 276 292 265 50 28 52 76 79 86 50 72 118 46 41 130 108 155 157 155 154 150 149 149 144 139 131 125 133 141 140 139 140 141 138 139 140 142 143 138 129 134 139 135
337 356 10 308 80 1 288 282 90 167 60 59 101 93 63 65 66 61 70 338 182 107 167 164 158 157 156 153 155 152 149 144 142 142 149 147 146 146 144 143 143 143 145 147 145 137 134 140 139
336 344 342 144 236 227 262 359 31 113 93 69 92 76 65 101 59 79 42 346 191 173 177 172 164 162 162 159 159 159 153 154 155 154 158 155 155 154 153 149 146 144 145 144 145 142 140 144 144
10 11 271 97 266 275 267 277 50 39 85 82 89 82 83 78 76 73 72 199 202 188 192 182 173 168 170 168 166 166 161 164 169 169 168 166 165 165 163 159 152 151 152 156 154 147 149 152 153
340 276 304 278 271 270 278 295 112 59 22 71 84 102 105 91 87 54 91 186 211 239 168 185 180 176 177 180 174 174 172 174 180 182 181 179 178 178 175 173 166 168 169 173 167 160 164 169 165
306 243 1 284 282 298 327 96 71 52 56 57 59 108 94 114 101 66 84 184 218 246 154 187 189 186 185 189 184 181 182 184 190 193 192 191 189 189 188 186 182 184 183 181 182 179 176 184 180
197 72 242 286 294 305 293 29 36 36 74 52 68 78 106 94 109 109 42 194 217 223 203 205 204 202 195 194 195 190 193 194 198 202 202 201 201 200 199 199 195 196 193 191 192 191 189 194 193
244 125 274 262 278 296 2 40 42 32 63 62 50 88 143 126 40 170 331 210 219 224 232 214 220 226 212 200 199 198 200 204 207 208 209 208 208 209 209 210 207 204 204 202 204 207 204 203 204
262 355 241 247 257 278 20 9 20 23 6 18 4 327 304 68 11 263 275 291 295 214 221 234 224 232 219 215 207 205 206 210 212 217 217 214 213 213 215 217 216 213 213 213 215 219 216 213 211
161 167 239 251 336 338 15 358 351 2 340 333 330 311 317 313 141 198 282 295 317 228 214 217 216 208 208 215 219 216 215 215 216 220 223 222 219 219 220 222 222 219 218 220 222 223 221 219 215
233 209 249 283 306 341 346 328 340 343 323 313 327 328 320 327 329 4 289 272 314 328 176 198 224 226 216 225 222 223 228 229 229 228 227 227 226 225 225 223 225 222 221 223 224 225 224 221 216
221 248 280 298 296 331 327 323 314 303 298 302 306 306 300 300 302 297 286 273 279 338 77 120 186 208 207 226 232 244 236 245 247 249 239 230 228 230 226 229 227 229 229 229 230 231 227 222 218
171 257 280 287 322 297 293 282 280 281 292 295 286 279 280 287 299 285 284 280 270 295 278 252 178 212 209 215 234 243 243 248 258 256 243 239 233 230 229 232 235 233 237 240 235 231 228 225 219
316 317 314 308 300 296 303 298 319 294 291 289 292 275 270 268 264 274 272 272 267 274 275 254 243 216 203 226 241 237 239 245 249 252 243 249 240 233 224 226 237 239 239 250 239 231 224 214 211
330 337 316 272 252 237 245 317 269 278 295 259 263 284 286 292 283 256 262 270 271 280 280 281 253 255 249 245 241 247 251 233 245 247 246 247 245 236 226 220 231 235 237 244 240 222 220 217 219
244 260 241 272 217 211 138 252 262 276 296 303 284 280 257 254 254 262 258 272 264 285 272 266 274 247 251 260 250 257 257 258 243 237 246 244 248 242 233 217 226 229 233 237 238 230 222 220 224
241 235 326 335 75 39 138 251 242 256 254 266 272 277 275 262 257 252 253 256 258 266 267 256 266 260 252 254 260 257 265 262 271 257 239 240 244 238 234 230 223 224 223 231 231 229 219 222 216
339 349 330 317 312 326 310 296 302 292 286 290 287 291 288 273 264 266 261 256 249 245 251 263 263 266 264 258 257 259 264 267 268 274 266 264 245 235 232 230 230 222 223 223 226 226 214 220 225
339 329 314 296 279 287 284 299 310 315 304 291 287 279 278 272 285 74 44 295 242 233 237 243 242 232 240 249 257 256 265 276 270 266 272 274 257 246 235 228 230 224 220 218 222 224 228 225 228
298 280 277 276 333 342 328 305 297 283 278 280 275 258 143 72 35 16 36 84 97 96 95 80 275 286 301 295 290 288 282 278 276 266 265 267 269 256 243 238 229 231 222 226 223 226 227 230 227
301 324 340 322 328 321 312 298 300 301 300 292 261 151 106 79 52 53 73 73 86 72 22 355 339 329 320 293 295 293 292 288 282 265 262 272 262 262 256 252 242 235 221 227 227 224 228 227 224
357 343 329 315 329 284 10 292 297 272 282 321 236 111 101 83 78 71 62 58 55 43 2 340 323 308 297 294 291 298 294 290 280 282 270 274 280 260 257 253 255 257 249 241 229 227 229 231 228
259 283 273 271 269 290 284 215 273 43 3 344 16 70 78 76 60 51 38 43 58 36 12 9 322 295 289 295 302 297 298 299 287 277 275 276 287 283 258 266 261 258 252 232 226 226 223 230 233
301 348 318 272 240 264 275 287 308 54 99 21 17 17 22 47 49 47 9 342 353 9 344 327 320 307 290 289 290 296 297 301 305 281 274 272 286 266 262 266 264 257 258 256 249 237 236 226 232
21 1 336 348 354 220 359 349 331 86 72 87 66 25 20 23 22 21 11 6 14 6 356 340 334 329 324 307 298 294 296 295 293 294 289 284 284 278 270 268 262 261 257 260 256 251 254 241 226
299 270 161 283 323 292 308 236 233 116 107 70 53 46 9 2 3 351 348 341 339 329 323 314 311 314 311 315 302 293 292 296 299 300 298 291 278 279 276 273 267 268 265 260 259 250 250 248 249
4 327 228 313 278 298 246 303 332 85 46 93 61 33 15 342 333 341 332 339 336 327 316 311 308 306 308 317 302 296 291 289 294 295 305 297 281 271 269 268 259 260 266 266 263 252 251 247 249
180 226 36 345 316 280 277 313 254 156 19 100 63 20 332 331 308 316 318 317 310 306 311 307 297 297 296 293 298 292 295 283 283 287 291 292 290 276 257 254 256 259 263 267 267 261 259 255 245
331 322 302 183 178 216 304 255 310 336 40 121 186 247 286 306 313 309 307 302 301 297 303 295 291 295 296 294 288 280 276 282 276 277 278 282 287 282 262 256 258 257 260 271 277 272 265 262 259
252 253 101 96 297 262 262 274 281 272 314 314 233 336 332 332 332 331 323 316 302 311 298 292 292 295 298 299 289 282 274 283 277 273 276 275 274 275 278 257 255 265 266 262 269 271 272 265 262
Height
1504 1504 1502 1500 1512 1508 1509 1490 1472 1474 1472 1467 1465 1471 1483 1485 1489 1506 1495 1492 1492 1493 1495 1498 1500 1503 1505 1508 1510 1513 1515 1517 1519 1520 1522 1524 1525 1527 1529 1531 1533 1534 1536 1538 1540 1541 1542 1543 1545
1505 1504 1502 1501 1517 1527 1513 1478 1485 1482 1473 1470 1471 1473 1477 1488 1489 1492 1494 1492 1493 1494 1496 1498 1501 1503 1505 1508 1511 1513 1516 1518 1520 1521 1523 1524 1526 1528 1530 1532 1533 1535 1537 1538 1540 1542 1543 1544 1546
1505 1504 1504 1506 1512 1520 1508 1481 1475 1471 1470 1471 1475 1475 1481 1491 1492 1494 1495 1492 1494 1495 1498 1499 1501 1504 1506 1508 1511 1513 1515 1518 1520 1522 1523 1525 1527 1529 1531 1533 1534 1536 1537 1539 1541 1542 1543 1545 1546
1505 1505 1505 1513 1515 1496 1492 1481 1475 1472 1471 1471 1472 1481 1488 1492 1493 1494 1495 1492 1495 1496 1498 1500 1502 1504 1507 1508 1510 1513 1515 1518 1520 1522 1524 1525 1527 1529 1531 1533 1534 1536 1538 1539 1540 1542 1543 1544 1546
1507 1506 1514 1514 1508 1489 1478 1475 1471 1474 1472 1473 1473 1486 1489 1493 1494 1494 1494 1491 1493 1496 1497 1500 1502 1503 1506 1509 1510 1512 1515 1517 1519 1522 1523 1525 1527 1528 1530 1532 1534 1536 1537 1539 1540 1541 1543 1544 1546
1508 1505 1520 1526 1506 1487 1481 1475 1473 1473 1475 1475 1478 1484 1491 1493 1494 1497 1496 1493 1491 1494 1498 1500 1501 1503 1505 1508 1510 1512 1514 1516 1519 1521 1523 1525 1526 1528 1530 1531 1533 1535 1537 1538 1539 1541 1542 1544 1546
1508 1511 1517 1513 1506 1491 1484 1478 1478 1477 1477 1480 1482 1486 1494 1493 1494 1495 1497 1494 1493 1493 1496 1498 1500 1503 1504 1507 1509 1511 1513 1515 1518 1520 1522 1523 1525 1527 1528 1529 1531 1534 1535 1537 1538 1539 1540 1542 1544
1505 1507 1511 1507 1507 1500 1483 1480 1480 1481 1484 1485 1484 1488 1494 1493 1494 1494 1495 1497 1491 1492 1492 1496 1498 1500 1503 1504 1506 1508 1511 1514 1516 1518 1520 1521 1523 1525 1526 1528 1530 1532 1533 1535 1536 1537 1539 1540 1542
1503 1513 1518 1507 1501 1494 1488 1486 1485 1486 1485 1486 1488 1488 1492 1491 1491 1494 1493 1493 1495 1489 1490 1491 1494 1497 1499 1503 1504 1507 1509 1511 1513 1516 1518 1519 1521 1523 1524 1526 1528 1530 1532 1533 1534 1535 1537 1538 1540
1500 1513 1505 1494 1493 1492 1490 1490 1489 1489 1489 1489 1489 1489 1490 1490 1490 1492 1493 1492 1492 1493 1491 1491 1493 1496 1497 1499 1502 1504 1506 1508 1510 1513 1515 1517 1518 1520 1522 1523 1524 1527 1528 1530 1532 1533 1534 1535 1537
1495 1504 1492 1490 1492 1490 1490 1491 1491 1491 1492 1490 1490 1488 1487 1490 1492 1493 1493 1492 1492 1493 1490 1490 1492 1494 1496 1498 1501 1502 1505 1507 1509 1511 1512 1514 1515 1517 1518 1519 1519 1522 1524 1526 1527 1528 1530 1532 1534
1494 1489 1488 1487 1487 1486 1488 1489 1490 1490 1490 1489 1488 1487 1486 1487 1489 1490 1492 1493 1492 1496 1490 1488 1489 1492 1495 1494 1497 1500 1502 1504 1506 1508 1509 1510 1512 1513 1514 1515 1516 1518 1520 1522 1524 1525 1527 1528 1531
1486 1486 1486 1487 1486 1484 1486 1487 1487 1486 1486 1486 1486 1486 1486 1486 1487 1488 1490 1492 1491 1494 1493 1492 1490 1490 1492 1494 1497 1498 1499 1500 1503 1503 1504 1506 1507 1509 1510 1511 1513 1515 1517 1518 1519 1521 1523 1524 1526
1485 1485 1486 1485 1484 1484 1486 1486 1486 1484 1483 1481 1481 1482 1483 1484 1486 1487 1489 1490 1490 1491 1491 1489 1490 1491 1493 1495 1495 1496 1497 1497 1499 1500 1500 1500 1502 1502 1503 1505 1506 1510 1513 1515 1515 1517 1519 1520 1522
1489 1492 1488 1481 1479 1481 1483 1488 1486 1481 1479 1478 1480 1480 1481 1482 1483 1483 1485 1487 1487 1487 1487 1487 1488 1490 1490 1492 1494 1497 1495 1497 1494 1495 1493 1492 1494 1494 1495 1497 1499 1502 1507 1510 1512 1514 1516 1518 1520
1491 1492 1500 1474 1468 1477 1479 1496 1479 1476 1475 1476 1476 1476 1475 1476 1478 1480 1481 1482 1483 1483 1485 1485 1486 1486 1487 1487 1489 1491 1492 1493 1491 1491 1491 1490 1491 1493 1493 1491 1492 1496 1501 1505 1509 1511 1512 1514 1516
1491 1503 1494 1486 1474 1476 1481 1487 1474 1472 1470 1470 1470 1470 1470 1470 1471 1472 1473 1476 1478 1480 1482 1482 1482 1484 1484 1484 1485 1487 1486 1487 1486 1488 1488 1487 1489 1486 1486 1490 1489 1491 1495 1500 1503 1506 1508 1510 1513
1505 1502 1497 1496 1480 1476 1480 1477 1469 1468 1467 1465 1464 1465 1465 1465 1465 1465 1466 1468 1470 1473 1475 1477 1479 1480 1481 1481 1482 1483 1484 1483 1482 1480 1478 1478 1469 1478 1478 1478 1484 1483 1487 1494 1499 1501 1503 1505 1507
1491 1496 1499 1489 1480 1480 1482 1479 1472 1468 1464 1461 1459 1461 1461 1459 1461 1462 1462 1464 1467 1469 1469 1471 1474 1475 1477 1477 1478 1479 1479 1479 1478 1475 1475 1476 1478 1479 1471 1466 1475 1474 1477 1484 1489 1495 1499 1500 1502
1492 1497 1498 1485 1478 1480 1482 1475 1468 1465 1460 1458 1455 1455 1456 1456 1458 1461 1461 1463 1466 1467 1468 1470 1472 1473 1475 1476 1477 1476 1476 1474 1472 1470 1466 1466 1469 1470 1470 1471 1471 1474 1479 1485 1480 1485 1490 1495 1496
1491 1495 1496 1496 1484 1480 1484 1479 1471 1460 1457 1452 1450 1448 1450 1454 1458 1461 1462 1464 1465 1466 1468 1470 1470 1471 1472 1473 1473 1472 1470 1468 1466 1463 1461 1459 1458 1463 1463 1465 1467 1470 1462 1474 1480 1473 1481 1486 1490
1502 1490 1490 1490 1496 1509 1484 1506 1466 1461 1454 1450 1442 1448 1451 1456 1458 1461 1464 1465 1466 1468 1469 1469 1469 1469 1469 1469 1469 1468 1466 1464 1462 1459 1457 1455 1455 1457 1461 1460 1466 1466 1461 1461 1467 1466 1474 1485 1484
1498 1487 1488 1487 1491 1495 1482 1500 1461 1462 1464 1464 1459 1459 1458 1459 1461 1463 1466 1467 1467 1467 1468 1468 1469 1469 1468 1467 1466 1465 1463 1462 1457 1454 1452 1452 1452 1450 1450 1456 1456 1461 1456 1453 1456 1456 1466 1477 1478
1486 1489 1487 1482 1486 1509 1482 1487 1480 1472 1467 1465 1469 1469 1471 1464 1463 1462 1465 1467 1467 1467 1468 1467 1466 1466 1465 1464 1462 1461 1460 1457 1453 1450 1448 1447 1448 1452 1454 1458 1460 1453 1445 1445 1436 1452 1445 1457 1468
1492 1502 1523 1520 1514 1510 1475 1486 1475 1471 1466 1463 1463 1471 1472 1469 1465 1462 1466 1468 1465 1465 1466 1465 1464 1463 1462 1460 1458 1456 1455 1453 1450 1447 1445 1444 1442 1442 1444 1445 1445 1449 1447 1444 1447 1450 1442 1448 1455
1495 1500 1526 1522 1524 1501 1482 1493 1478 1466 1465 1465 1466 1468 1470 1467 1463 1466 1467 1466 1464 1464 1463 1461 1460 1459 1458 1456 1454 1453 1451 1448 1446 1443 1442 1441 1439 1438 1439 1438 1438 1442 1444 1443 1446 1450 1451 1453 1450
1495 1507 1492 1506 1501 1509 1489 1472 1467 1463 1463 1462 1466 1465 1464 1468 1467 1465 1463 1461 1461 1460 1458 1457 1454 1452 1450 1449 1448 1447 1446 1443 1441 1439 1438 1437 1436 1436 1435 1435 1435 1437 1437 1435 1438 1441 1443 1441 1448
1491 1488 1509 1511 1528 1517 1489 1486 1482 1467 1466 1465 1466 1465 1465 1465 1464 1460 1459 1457 1457 1457 1455 1452 1448 1445 1443 1442 1440 1439 1440 1438 1436 1435 1434 1433 1432 1432 1433 1434 1433 1434 1432 1432 1433 1430 1433 1436 1442
1494 1496 1491 1494 1500 1519 1511 1488 1458 1461 1463 1463 1462 1463 1463 1459 1457 1457 1457 1456 1455 1453 1450 1444 1442 1439 1437 1435 1433 1432 1432 1431 1430 1429 1429 1429 1428 1427 1427 1426 1429 1428 1430 1429 1429 1429 1429 1431 1434
1485 1488 1490 1515 1512 1509 1508 1473 1460 1459 1460 1460 1462 1460 1459 1458 1456 1454 1453 1452 1450 1446 1442 1438 1436 1434 1432 1429 1425 1425 1425 1425 1423 1423 1423 1424 1424 1423 1422 1421 1422 1424 1426 1426 1425 1425 1426 1430 1431